Zurück zum Katalog

STARLINK-38115

AktivKommunikationSSO
NORAD 100111·PAYLOAD·🇺🇸 United States

Gestartet Jul 21, 2026 von Vandenberg Space Force Base

Loading…

Nächste Überflüge (nächste 24 Stunden)

TLE

AktuellSource: Space-Track

Epoche: Sep 14, 2026, 14:51 UTC

1 A0111U 26166L   26257.61878474  .00200784  00000-0  13157-2 0  9991
2 A0111  97.2824 275.6174 0002236  64.7819 295.3678 15.75188017  8671

Verfolge STARLINK-38115 in Echtzeit mit AllMySat

Download on the App Store